Вернуться в каталог

COSMOS 1275 DEB

АктивенPO
NORAD 42220·DEBRIS·🇷🇺 Russia

Запущен Jun 4, 1981 с Plesetsk Cosmodrome

Loading…

Ближайшие Пролёты (ближайшие 24 часа)

TLE

СвежийSource: Space-Track

Эпоха: Sep 13, 2026, 03:55 UTC

1 42220U 81053UL  26256.16385627  .00006999  00000-0  14160-2 0  9993
2 42220  82.9056 217.2291 0019576 358.3115   1.8019 14.61105299668726

Отслеживайте COSMOS 1275 DEB в реальном времени с AllMySat

Download on the App Store